星链-6349 (STARLINK-6349 )

导读 | 星芒AI

STARLINK-6349 是 SpaceX Starlink 项目中的一颗低轨通信卫星,属于第63批发射的星链卫星群。该卫星运行在约550公里高度的近地轨道,旨在为全球用户提供高速互联网服务。它采用先进的相控阵天线和激光通信技术,以提高网络连接的稳定性和效率。作为星链系统的一部分,STARLINK-6349 有助于扩展覆盖范围,特别是在偏远和网络基础设施薄弱的地区。

基本信息
目录编号:
57241
目录名称:
STARLINK-6349
国际标识:
2023-094Z
轨道中心:
EARTH
卫星名称:
星链-6349
卫星全名:
星链-6349 (STARLINK-6349 )
卫星状态:
在轨 (已飞行898 天)
发射日期:
2023-07-07 UTC
国别 :
美国 (US)
星等 :
--
轨道信息
数据来源 国际轨道数据
星历时间: 2025-12-21T07:26:37+0800
19小时前
查看轨道信息
半长轴: 6937.223km
偏心率: 0.0001317
轨道倾角: 43.003°
近地点辐角 271.041°
升交点赤经 85.533°
平近点角 89.028°
近地点: 558.172km
远地点: 560km
周期: 95.838分钟
每日圈数: 15.025342
详细信息
固有亮度:
5
最大亮度:
2.4
卫星平台:
Starlink v1.5
覆盖范围:
全球
运营商:
太空探索技术公司
运营商所在国:
美国
制造商(研发单位):
太空探索技术公司
制造商所在国:
美国
使用方式:
暂无
卫星简介
星链(Starlink)计划是由太空探索技术公司(SpaceX)提出的一个巨型低轨卫星互联网星座项目,计划在2019年至2024年间在太空搭建由约1.2万颗卫星组成的“星链”网络,其中1584颗将部署在地球上空550千米处的近地轨道,并从2020年开始工作。该卫星仍在工作。
2D轨道图
3D轨道图
轨道高度分析图
轨道倾角分析图
轨道综合分析图
查看轨道综合分析图